Wind_Speed
30 28 27 25 24 24 24 24 24 22 21 18 19 20 21 24 26 29 30 34 39 42 45 49 54 57 58 58 59 59 59 58 57 57 57 56 55 53 53 53 51 48 46 46
31 29 28 26 24 25 25 25 25 24 21 20 20 20 21 24 26 29 31 33 37 42 44 47 50 54 56 57 58 57 58 58 55 55 56 57 56 54 53 53 52 50 47 46
31 29 29 27 25 25 26 24 25 25 23 22 21 21 21 23 27 29 31 33 37 41 44 47 49 51 54 54 56 57 58 57 55 54 55 55 55 54 53 52 52 51 49 47
32 30 28 27 25 26 26 25 25 25 24 23 23 23 23 23 26 28 31 34 37 39 42 45 48 50 52 54 54 55 57 57 56 55 55 54 54 54 54 52 51 51 49 48
32 31 29 27 26 26 26 25 25 25 25 24 25 25 24 24 26 27 30 33 36 39 41 43 46 49 51 53 54 54 55 57 56 55 55 54 54 53 53 51 50 49 48 47
33 32 30 27 26 26 26 26 25 25 26 26 26 26 26 26 27 28 30 32 35 38 42 43 45 48 50 51 53 53 53 55 55 55 55 55 54 53 52 51 49 47 46 46
33 33 30 28 27 26 26 25 24 26 26 27 27 27 27 28 28 29 30 32 34 36 40 42 44 47 47 49 52 53 53 54 54 54 55 55 54 54 52 51 49 47 45 44
32 32 30 28 27 26 26 26 25 25 26 27 28 28 28 28 28 29 31 33 35 36 38 40 43 45 46 47 50 51 52 53 53 53 54 54 54 54 53 52 50 49 47 45
32 30 29 28 27 27 26 25 25 25 26 26 27 28 28 28 29 29 31 33 36 37 38 39 41 43 45 47 48 50 51 52 53 53 53 53 53 52 52 51 50 48 48 46
31 28 28 28 27 27 27 25 24 25 25 25 26 26 27 28 29 29 30 32 35 38 39 39 41 43 45 45 47 48 50 51 52 53 52 52 51 51 50 50 49 48 47 46
30 28 28 27 27 27 26 25 24 24 25 25 25 25 26 27 28 28 29 32 35 37 39 40 40 43 45 45 46 47 49 50 51 51 52 51 51 50 49 48 46 46 44 44
28 28 27 26 26 27 26 25 25 25 25 25 25 25 26 26 27 28 28 31 34 36 38 39 40 41 44 45 45 47 48 49 50 51 51 51 51 50 49 48 47 46 44 43
28 28 27 26 26 26 26 26 25 25 25 25 25 25 25 25 25 27 28 30 33 35 37 38 40 41 42 44 46 46 47 48 49 50 50 50 49 49 48 48 47 46 45 43
28 27 27 26 26 26 26 25 25 25 25 25 25 25 25 25 26 27 27 29 31 34 36 38 39 41 42 43 44 45 46 47 49 49 49 48 47 47 47 48 47 46 44 43
28 27 26 25 25 25 26 25 25 24 24 25 25 25 24 24 25 26 28 29 30 32 35 37 38 40 42 43 44 44 46 47 48 48 48 47 46 46 47 47 47 46 44 43
27 26 26 25 24 25 25 24 24 23 23 24 24 24 24 24 24 25 27 29 30 32 33 36 37 39 41 43 44 45 46 46 46 46 47 47 47 46 46 45 45 45 44 42
26 25 25 24 24 24 24 23 23 22 22 23 24 24 23 24 25 25 26 28 29 31 32 35 37 38 40 41 42 44 45 46 46 46 46 47 47 46 45 44 44 43 43 42
25 24 23 23 22 21 22 22 22 21 21 22 23 23 23 23 24 24 26 27 28 29 31 33 35 37 40 41 42 43 44 45 47 47 47 47 46 46 45 45 44 43 42 41
24 23 22 22 21 20 20 20 20 20 20 20 21 22 22 22 23 23 24 25 26 27 29 31 34 35 38 40 40 41 43 44 46 46 47 47 46 44 44 44 42 42 41 39
22 21 21 20 20 20 18 18 18 18 18 18 19 20 20 21 21 22 23 23 25 26 28 30 32 34 36 38 39 40 42 44 45 45 45 46 45 44 42 41 40 40 39 37
20 20 20 19 19 19 18 17 16 16 16 16 16 17 18 19 20 21 21 22 23 24 26 28 31 33 35 37 38 39 41 42 44 44 44 44 43 43 42 41 40 39 37 36
19 18 18 18 18 18 18 17 16 15 14 14 15 15 17 18 19 20 20 21 22 23 24 26 29 32 34 36 38 39 41 42 42 42 43 43 41 41 41 40 39 38 36 35
18 18 17 17 17 17 17 17 16 15 14 15 15 15 16 17 19 19 20 20 21 22 23 24 27 30 33 36 38 39 41 41 41 41 41 41 41 40 40 40 39 37 35 34
19 18 17 16 16 16 16 16 16 15 15 15 15 15 16 16 17 18 19 20 21 21 22 23 26 29 31 34 36 37 39 39 40 39 40 41 40 40 39 39 38 37 35 34
18 17 17 16 15 15 16 16 15 15 15 15 14 14 15 16 16 17 19 20 20 21 22 23 25 28 30 32 34 36 37 37 38 37 38 38 39 39 38 38 37 36 34 33
17 16 16 16 16 15 15 15 15 15 14 13 13 14 14 15 16 17 18 19 20 20 21 23 25 27 29 31 32 34 35 36 37 37 37 37 37 37 37 36 36 35 34 33
15 15 15 15 14 14 14 13 13 13 13 13 12 13 14 15 16 17 17 18 19 20 21 22 24 26 28 30 31 33 35 35 35 36 37 37 37 37 36 36 35 34 34 33
Wind_Direction
310 304 298 294 288 284 282 279 277 276 272 267 261 253 241 235 230 225 222 219 217 216 214 213 213 215 215 215 216 216 218 218 218 220 221 222 223 224 225 227 228 229 231 233
310 303 297 291 287 283 281 278 275 272 268 265 260 255 245 237 233 228 222 219 217 217 217 215 213 215 215 216 216 216 217 217 217 218 220 222 224 225 226 227 229 231 232 234
309 304 298 292 287 283 281 278 273 269 265 260 257 253 247 241 235 232 226 222 218 217 218 216 214 214 215 216 216 216 217 218 218 219 220 222 224 226 227 229 231 233 234 235
309 304 299 298 288 282 280 276 271 268 263 258 255 251 247 243 237 233 229 225 221 218 217 218 217 216 215 215 216 217 218 219 220 220 221 222 224 226 227 229 232 235 237 239
306 303 301 298 292 285 280 275 270 266 262 258 254 252 248 242 238 235 230 228 224 221 218 217 218 217 216 216 217 217 218 219 220 221 221 223 224 226 228 230 232 235 237 238
303 301 301 302 295 288 281 277 270 265 261 258 254 253 249 243 238 235 233 229 225 223 220 219 218 217 217 218 218 218 219 219 220 221 222 223 225 227 228 230 233 235 236 238
300 299 300 300 295 290 283 279 272 265 261 258 255 253 248 245 240 236 234 231 227 224 221 220 219 218 218 219 219 219 219 219 219 220 222 223 225 226 228 231 233 235 236 239
297 297 299 296 292 289 284 278 273 267 263 259 256 252 249 246 242 238 236 232 228 226 223 220 219 218 219 219 219 219 220 220 219 220 221 223 225 226 228 231 233 234 236 238
296 296 294 293 289 286 284 279 273 269 264 261 257 253 251 249 245 241 237 233 229 227 225 223 220 218 218 218 218 219 221 221 220 220 221 223 225 226 228 230 232 234 236 238
293 293 291 289 287 286 284 281 275 270 266 264 260 255 252 250 247 243 238 234 230 227 226 224 222 219 218 218 218 219 220 220 220 220 221 223 225 226 228 229 232 234 235 237
290 291 290 289 287 285 283 280 276 271 267 265 261 257 254 250 246 242 238 234 230 228 226 225 223 220 219 219 219 220 220 221 221 222 222 223 224 226 227 229 230 232 234 236
290 289 289 289 285 284 282 279 276 272 269 266 262 259 253 249 245 242 240 235 230 227 226 226 223 221 220 220 220 220 220 221 221 222 222 223 225 225 226 228 229 231 233 235
288 290 290 288 284 283 282 278 276 271 267 265 262 259 254 248 245 243 239 234 229 226 225 225 224 222 220 221 221 221 220 220 221 221 223 224 224 225 225 227 228 230 232 234
287 289 289 287 283 282 281 279 276 272 267 264 260 257 254 249 245 242 238 234 229 226 225 225 224 222 221 220 220 220 219 220 220 221 222 223 224 224 224 225 226 228 230 232
287 288 287 285 283 282 281 279 277 273 268 263 260 256 251 249 246 242 238 234 231 228 226 225 224 223 221 221 221 220 219 218 219 220 220 222 223 224 224 224 225 226 227 231
286 287 285 284 284 283 281 279 277 274 268 262 259 255 250 248 246 243 240 234 232 229 227 225 224 223 222 221 220 220 219 217 218 219 220 220 222 222 222 222 223 225 227 230
286 285 284 284 284 283 282 279 276 274 269 261 257 254 250 247 245 242 239 235 233 230 227 225 223 222 221 220 220 219 218 217 218 218 219 219 220 221 222 223 224 226 228 230
285 284 285 284 283 282 282 279 274 272 269 263 257 252 250 247 244 242 237 233 232 230 228 225 222 219 218 218 219 219 218 217 217 216 217 218 219 220 221 222 223 225 227 230
286 284 283 283 281 281 281 278 275 271 268 262 255 250 248 246 243 241 235 231 228 226 225 223 221 219 216 216 215 215 216 215 216 216 216 217 218 219 220 221 223 225 226 228
288 285 282 280 279 279 279 276 274 271 266 261 254 248 245 242 240 237 232 228 226 225 223 222 220 218 214 212 212 214 215 215 215 215 215 216 216 217 218 219 221 222 223 225
289 284 280 279 277 276 276 275 274 272 266 260 254 247 242 239 237 233 228 225 224 224 223 220 218 216 212 210 210 212 213 212 213 213 214 213 214 215 216 217 219 219 221 223
288 286 281 277 274 273 273 272 271 271 266 259 254 248 242 239 236 231 227 224 224 224 222 218 216 213 210 208 208 209 209 209 209 210 211 210 211 212 212 213 214 215 218 219
287 285 282 277 274 273 272 268 267 267 266 262 257 250 244 240 236 232 227 225 224 221 218 215 213 210 207 206 206 207 207 207 208 208 208 208 209 209 209 211 213 214 215 215
286 284 281 279 276 272 269 266 265 264 262 259 256 250 244 239 234 230 226 224 222 219 216 212 209 206 204 203 203 203 204 204 205 205 206 207 208 208 209 209 210 213 214 214
285 282 280 278 276 273 268 266 264 261 260 259 255 249 242 235 229 225 224 221 219 216 212 208 203 201 200 199 200 201 201 202 202 203 203 204 205 206 206 208 209 210 212 214
282 280 280 279 276 273 269 264 260 258 255 254 251 245 238 232 227 224 220 216 215 212 207 202 199 197 197 198 199 199 198 198 198 200 202 203 204 205 205 206 206 208 211 213
279 279 278 278 275 269 263 259 255 252 251 250 248 244 236 229 225 222 218 214 209 203 199 197 196 196 196 196 196 197 196 195 197 199 201 203 204 204 205 205 206 207 208 209
Height
5503 5498 5494 5492 5490 5487 5484 5483 5481 5480 5479 5479 5477 5477 5478 5479 5481 5484 5488 5493 5499 5505 5512 5519 5528 5537 5545 5555 5564 5574 5583 5592 5602 5610 5618 5626 5634 5641 5648 5655 5661 5667 5672 5677
5496 5491 5487 5485 5484 5481 5478 5476 5475 5473 5474 5474 5472 5472 5472 5473 5475 5478 5482 5487 5492 5498 5505 5512 5520 5529 5537 5546 5556 5565 5574 5584 5592 5600 5609 5617 5625 5632 5639 5645 5652 5658 5663 5669
5488 5484 5480 5478 5477 5474 5472 5470 5468 5467 5468 5467 5466 5466 5467 5468 5470 5472 5476 5480 5486 5492 5498 5505 5513 5521 5530 5538 5547 5556 5565 5574 5582 5591 5600 5608 5616 5623 5630 5636 5643 5649 5655 5660
5480 5477 5472 5474 5469 5467 5464 5463 5461 5460 5460 5460 5460 5460 5460 5462 5464 5466 5470 5474 5479 5485 5491 5498 5505 5513 5522 5530 5539 5547 5556 5565 5574 5582 5590 5599 5606 5614 5621 5628 5634 5640 5646 5652
5472 5467 5465 5465 5461 5458 5456 5456 5454 5453 5453 5453 5453 5453 5454 5455 5457 5460 5463 5467 5472 5478 5484 5490 5498 5505 5513 5522 5530 5538 5547 5556 5564 5573 5581 5589 5597 5605 5612 5619 5626 5632 5638 5643
5463 5459 5457 5458 5454 5450 5449 5447 5447 5446 5445 5445 5446 5447 5448 5449 5451 5453 5456 5460 5465 5470 5476 5483 5489 5497 5505 5513 5521 5530 5538 5546 5555 5563 5572 5580 5588 5596 5603 5610 5617 5623 5629 5634
5455 5450 5449 5449 5444 5442 5441 5441 5439 5437 5437 5438 5438 5439 5441 5442 5444 5446 5449 5453 5457 5463 5468 5475 5481 5489 5497 5504 5512 5520 5528 5537 5546 5554 5562 5571 5579 5586 5594 5601 5607 5614 5620 5625
5447 5443 5444 5439 5436 5434 5433 5431 5430 5429 5429 5429 5430 5431 5432 5434 5436 5439 5442 5445 5450 5455 5460 5466 5473 5481 5488 5496 5503 5511 5519 5528 5536 5545 5553 5561 5569 5576 5584 5591 5598 5604 5610 5616
5440 5439 5434 5430 5427 5425 5424 5422 5421 5421 5421 5421 5422 5423 5424 5426 5428 5431 5434 5437 5442 5447 5453 5459 5465 5472 5480 5487 5494 5502 5509 5518 5526 5535 5543 5551 5559 5567 5574 5581 5588 5595 5601 5607
5430 5428 5425 5421 5419 5417 5415 5414 5413 5413 5413 5413 5413 5415 5416 5418 5420 5422 5425 5429 5434 5439 5445 5450 5457 5463 5470 5478 5485 5493 5501 5508 5517 5525 5533 5541 5549 5557 5564 5572 5579 5586 5592 5598
5420 5419 5416 5413 5410 5409 5407 5406 5405 5405 5405 5405 5405 5407 5408 5410 5412 5414 5417 5420 5425 5430 5436 5442 5448 5455 5461 5468 5476 5484 5491 5499 5507 5515 5524 5532 5539 5547 5555 5563 5570 5577 5583 5589
5412 5410 5407 5406 5403 5401 5399 5398 5397 5397 5397 5396 5397 5398 5399 5401 5403 5406 5409 5412 5416 5421 5427 5433 5439 5445 5452 5459 5466 5474 5482 5490 5498 5506 5514 5522 5529 5537 5544 5552 5560 5566 5573 5579
5402 5400 5398 5396 5394 5392 5391 5390 5389 5388 5388 5388 5389 5389 5391 5393 5395 5397 5400 5404 5408 5412 5418 5423 5430 5436 5443 5450 5457 5464 5472 5480 5488 5496 5504 5512 5519 5527 5535 5542 5549 5556 5563 5569
5393 5391 5389 5388 5386 5384 5382 5381 5380 5380 5380 5380 5380 5381 5382 5384 5386 5389 5392 5395 5399 5403 5408 5414 5420 5427 5433 5440 5447 5455 5462 5471 5479 5487 5494 5502 5510 5517 5525 5532 5539 5546 5553 5560
5384 5382 5381 5379 5377 5376 5374 5373 5372 5371 5371 5371 5371 5372 5374 5376 5378 5380 5383 5386 5390 5395 5400 5405 5411 5417 5423 5430 5438 5445 5453 5461 5469 5477 5485 5493 5500 5507 5515 5522 5530 5537 5544 5550
5376 5374 5372 5370 5369 5367 5365 5364 5363 5363 5362 5362 5363 5364 5366 5367 5369 5372 5374 5377 5381 5386 5391 5396 5401 5407 5413 5420 5428 5435 5443 5451 5459 5467 5475 5483 5491 5498 5506 5513 5521 5528 5535 5542
5367 5365 5363 5362 5360 5359 5357 5356 5355 5354 5354 5354 5355 5356 5357 5359 5361 5363 5366 5369 5372 5377 5381 5386 5392 5398 5404 5411 5418 5426 5433 5441 5449 5457 5466 5474 5482 5490 5497 5505 5512 5519 5526 5532
5358 5357 5355 5354 5352 5351 5349 5348 5347 5346 5346 5346 5347 5348 5349 5351 5353 5355 5358 5361 5364 5368 5372 5377 5382 5388 5395 5401 5409 5416 5424 5432 5440 5448 5456 5465 5473 5481 5488 5496 5503 5510 5517 5523
5350 5348 5347 5345 5344 5343 5341 5340 5339 5338 5338 5338 5339 5340 5341 5343 5345 5347 5350 5353 5357 5360 5364 5368 5374 5379 5386 5393 5400 5407 5414 5423 5431 5439 5447 5455 5463 5471 5479 5487 5494 5502 5508 5514
5341 5340 5339 5337 5336 5335 5334 5332 5331 5331 5330 5330 5331 5332 5334 5336 5338 5340 5343 5346 5349 5353 5357 5361 5366 5371 5378 5384 5391 5398 5406 5414 5422 5430 5438 5447 5455 5463 5471 5478 5485 5492 5499 5505
5334 5332 5331 5329 5328 5327 5326 5325 5324 5324 5323 5323 5324 5325 5327 5329 5331 5333 5336 5339 5342 5345 5349 5353 5358 5363 5369 5376 5383 5390 5397 5405 5414 5422 5430 5438 5447 5455 5462 5470 5477 5484 5490 5497
5326 5325 5323 5322 5321 5320 5319 5318 5318 5318 5317 5317 5318 5319 5320 5322 5324 5326 5329 5333 5336 5338 5342 5346 5351 5356 5362 5368 5375 5382 5390 5398 5406 5414 5422 5431 5438 5446 5454 5462 5469 5476 5482 5489
5319 5318 5316 5315 5314 5313 5312 5312 5312 5311 5311 5312 5312 5313 5314 5316 5317 5320 5323 5326 5328 5331 5335 5339 5343 5348 5354 5360 5368 5375 5383 5391 5399 5407 5415 5423 5431 5439 5446 5454 5461 5468 5475 5481
5313 5311 5310 5308 5307 5307 5306 5306 5305 5305 5306 5306 5306 5307 5308 5310 5311 5314 5316 5319 5322 5325 5329 5333 5337 5342 5347 5354 5361 5369 5376 5384 5392 5400 5408 5416 5423 5431 5439 5446 5454 5461 5467 5473
5306 5304 5303 5302 5301 5301 5300 5300 5300 5300 5300 5300 5300 5301 5302 5304 5306 5308 5311 5314 5316 5320 5323 5327 5332 5337 5342 5349 5356 5363 5370 5378 5385 5393 5401 5409 5416 5424 5432 5439 5446 5453 5460 5466
5299 5298 5297 5296 5295 5295 5294 5294 5294 5294 5294 5295 5295 5296 5297 5298 5301 5303 5305 5308 5311 5315 5318 5323 5327 5332 5338 5344 5350 5357 5364 5371 5379 5387 5395 5402 5410 5417 5425 5432 5439 5446 5452 5458
5293 5292 5291 5290 5289 5289 5289 5288 5289 5289 5289 5290 5291 5291 5292 5294 5296 5298 5301 5304 5307 5310 5314 5319 5323 5328 5334 5340 5346 5352 5359 5367 5374 5381 5389 5396 5403 5411 5418 5425 5432 5438 5445 5451